ONEWEB-0033 (45142 NORAD) Tracking and Keplerian Element Data

This shows tracking and keplerian element data for the satellite.

Feedback or suggestion? Click here.




ElementValue
Catalog45142
NameONEWEB-0033
Epoch Orbit181
Epoch Day188.91667824
Epoch Year2020
RAAN115.8004
Inclination87.501
Eccentricity0.0021854
Argument of Perigee119.5892
Mean Anonmoly219.2174
Mean Motion14.81861564
Decay Rate-0.00056137
L11 45142U 20008M 20188.91667824 -.00056137 00000-0 -71413-2 0 9990
L22 45142 87.5010 115.8004 0021854 119.5892 219.2174 14.81861564 1813

Live tracking and technical data element details for ONEWEB-0033 (NORAD 45142). ONEWEB-0033 can be tracked NOW for your location showing map with azimuth and elevation plus other details from your city location.

Track the satellite on the map from your city or location and see movement details for azimuth, elevation, latitude, longitude, range, height, and movement on the map or in text.







IsCatalogInMostPopularTable: catalog: 45142, numindb: 32
Update: records affected: 1



GetName: 45142 ONEWEB-0033

Hit Count: updated at: Wed, 08 Jul 2020 05:13:52 GMT